Location: Newark
(42.8481°N, 0.4872°E)
Time: 07:57:42
(UTC+00:00)

Vanguard 3 - Pass Details

Date: 29 October 2020
Orbit: 508 x 3262 km, 33.3° (Epoch: 28 November)

Event Time Altitude Azimuth Distance (km) Brightness Sun altitude
Rises 07:52:23 0° 262° (W) 6,847 11.4 12.9°
Reaches altitude 10° 07:56:45 10° 260° (W) 6,012 11.2 13.6°
Maximum altitude 08:16:07 62° 186° (S) 3,423 10.8 16.5°
Drops below altitude 10° 08:32:21 10° 111° (ESE) 5,156 12.8 18.8°
Sets 08:35:46 0° 108° (ESE) 5,867 12.7 19.3°
